Location: Cremona
(45.1170°N, 10.0330°E)
Time: 07:00:08
(UTC+01:00)

ISS - Pass Details

Date: 23 January 2019
Orbit: 403 x 411 km, 51.6° (Epoch: 23 February)

Event Time Altitude Azimuth Distance (km) Brightness Sun altitude
Rises 20:05:56 0° 253° (WSW) 2,331 1.1 -30.1°
Reaches altitude 10° 20:08:03 10° 259° (W) 1,474 -0.1 -30.4°
Enters shadow 20:08:28 13° 261° (W) 1,308 -0.5 -30.5°
